OpenBCM V1.07b12 (Linux)

Packet Radio Mailbox

DB0FHN

[JN59NK Nuernberg]

 Login: GUEST





  
S57NML > KEPLER   09.04.03 19:31l 106 Lines 5591 Bytes #999 (0) @ WW
BID : 943S50BOX008
Read: DO9JVN DB0FHN GUEST
Subj: 2-line Amateur #03098-099
Path: DB0FHN<DB0ZWI<DB0HOT<OK0PBX<OK0PHK<OK0NAG<9A0BBS<S50BOX
Sent: 030409/1705z @:S50BOX.SVN.EU [Ljubljana ] bcm1.42
From: S57NML @ S50BOX.SVN.EU  (Andrej)
To:   KEPLER @ WW
X-Info: Received from 194.249.0.194 by HTTP-frontend

AO-7                    
1 07530U 74089B   03097.65542657 -.00000029  00000-0  10000-3 0  1642
2 07530 101.7486 144.9709 0012039 345.8160  14.2574 12.53565102299216
AO-10                   
1 14129U 83058B   03091.17918933 -.00000024  00000-0  10000-3 0  9244
2 14129  26.0433 157.4551 6010823 340.2144   4.1663  2.05867447120920
UO-11                   
1 14781U 84021B   03098.55591407  .00002222  00000-0  31394-3 0  1175
2 14781  98.1241  72.8865 0010678  54.9764 305.2446 14.78157087 23479
UO-14                   
1 20437U 90005B   03098.64511952  .00000214  00000-0  96412-4 0  2045
2 20437  98.2659 139.8953 0011845  56.6199 303.6113 14.31256106689515
AO-16                   
1 20439U 90005D   03098.09274162  .00000255  00000-0  11139-3 0  8756
2 20439  98.3065 151.3307 0011964  64.4366 295.8052 14.31493413689479
DO-17                   
1 20440U 90005E   03098.21196155  .00000278  00000-0  11952-3 0  7394
2 20440  98.3270 155.4518 0012097  63.2239 297.0179 14.31773332689567
WO-18                   
1 20441U 90005F   03099.18906290  .00000268  00000-0  11607-3 0   536
2 20441  98.3261 155.5706 0012690  62.7732 297.4743 14.31575164689686
LO-19                   
1 20442U 90005G   03097.69422084  .00000265  00000-0  11480-3 0    47
2 20442  98.3383 157.2455 0013016  64.6851 295.5679 14.31738133689525
FO-20                   
1 20480U 90013C   03097.87986663 -.00000034  00000-0  44222-5 0  4890
2 20480  99.0547  51.5620 0539479 254.4435  99.6508 12.83331044616710
RS-12/13                
1 21089U 91007A   03098.53492550  .00000097  00000-0  85773-4 0  5031
2 21089  82.9221 145.0596 0029755 146.8472 213.4563 13.74409802610511
UO-22                   
1 21575U 91050B   03098.17519909  .00000476  00000-0  16678-3 0  7688
2 21575  98.1471  87.8690 0007782 354.9795   5.1315 14.39192883615270
KO-23                   
1 22077U 92052B   03098.85705172 -.00000037  00000-0  10000-3 0  1673
2 22077  66.0857  22.5092 0015665 263.3997  96.5238 12.86410365500648
AO-27                   
1 22825U 93061C   03099.18783874  .00000223  00000-0  10415-3 0  5273
2 22825  98.2707 126.3467 0009299 108.8224 251.3966 14.28962330496961
IO-26                   
1 22826U 93061D   03098.65027005  .00000211  00000-0  99101-4 0  3301
2 22826  98.2697 126.9719 0009782 109.6541 250.5689 14.29186664496933
KO-25                   
1 22828U 93061F   03098.54892111  .00000192  00000-0  90996-4 0  4671
2 22828  98.2652 127.1407 0011035  91.8779 268.3687 14.29525871465121
POSAT                   
1 22829U 93061G   03098.54904593  .00000335  00000-0  14611-3 0  4937
2 22829  98.2690 127.7738 0010800  91.2845 268.9583 14.29795787497057
RS-15                   
1 23439U 94085A   03097.71946129 -.00000011  00000-0  88807-3 0  6977
2 23439  64.8178 323.6237 0146482 105.6981 256.0154 11.27548625341022
FO-29                   
1 24278U 96046B   03097.91009527  .00000041  00000-0  74186-4 0  5823
2 24278  98.5438 242.5809 0351504  91.1664 272.9761 13.52878012327842
TO-31                   
1 25396U 98043C   03099.22955788 -.00000043  00000-0  00000+0 0  8385
2 25396  98.6167 175.3368 0002577   9.1913 350.9314 14.23527465246591
GO-32                   
1 25397U 98043D   03097.93475768  .00000135  00000-0  78956-4 0  1853
2 25397  98.6140 172.8896 0001810  37.7271 322.4033 14.22971945246377
SO-33                   
1 25509U 98061B   03098.67673017  .00000434  00000-0  76637-4 0  8197
2 25509  31.4300 235.8258 0357249  11.6546 349.2110 14.27478879232330
PO-34                   
1 25520U 98064B   03098.66852091  .00003616  00000-0  18289-3 0  6576
2 25520  28.4600 256.7564 0006841 171.2704 188.7886 15.14155566245031
ISS (ZARYA)             
1 25544U 98067A   03099.14469422  .00020680  00000-0  26799-3 0  8703
2 25544  51.6354   6.9907 0004401  39.5537 110.7960 15.58831524250236
UO-36                   
1 25693U 99021A   03098.79356791  .00000339  00000-0  68327-4 0  8593
2 25693  64.5601 220.1132 0024867 313.7046  46.1967 14.76445825213523
OO-38                   
1 26063U 00004C   03098.20629530  .00000281  00000-0  11705-3 0  7589
2 26063 100.2029 161.5856 0036997 149.2735 211.0617 14.35504362167364
SO-41                   
1 26545U 00057A   03098.49889452  .00001667  00000-0  23935-3 0  4353
2 26545  64.5584 241.5203 0048347 230.9637 128.7067 14.79116737136455
MO-46                   
1 26548U 00057D   03098.37767392  .00002394  00000-0  31882-3 0  4382
2 26548  64.5569 234.2344 0041680 231.1333 128.6027 14.81446986136590
SO-42                   
1 26549U 00057E   03098.50257641  .00001846  00000-0  26862-3 0  7273
2 26549  64.5527 245.8743 0052878 230.3757 129.2667 14.78047681136376
AO-40                   
1 26609U 00072B   03093.12981620 -.00000366  00000-0  10000-3 0  3237
2 26609   8.4077  56.1468 7953400 160.1620 273.2516  1.25596418 11138
NO-44                   
1 26931U 01043C   03098.23371670  .00000273  00000-0  13986-3 0  4445
2 26931  67.0467 130.3284 0005727 273.5147  86.5298 14.29144492 79301
NO-45                   
1 26932U 01043D   03098.55569745  .00000167  00000-0  97950-4 0  4393
2 26932  67.0537 129.1929 0004030 259.6918 100.3728 14.29315427 79377
AO-49                   
1 27605U 02058A   03097.97155291  .00001129  00000-0  20149-3 0  1054
2 27605  64.5494  50.2490 0034877  91.3794 269.1291 14.71452467 15935
SO-50                   
1 27607U 02058C   03098.35397533  .00001734  00000-0  30718-3 0   959
2 27607  64.5487  49.8706 0036079  87.8307 272.6929 14.70021588 15975


73 de Andrej S57NML
TX:9/4/2003 


Read previous mail | Read next mail


 16.09.2025 01:43:16lGo back Go up